Year,Month,Day,Hour,Minute,Value (Times are PST for insolation in W/m^2)
2007,09,19,00,00,0.00
2007,09,19,00,01,0.00
2007,09,19,00,02,0.00
2007,09,19,00,03,0.00
2007,09,19,00,04,0.00
2007,09,19,00,05,0.00
2007,09,19,00,06,0.00
2007,09,19,00,07,0.00
2007,09,19,00,08,0.00
2007,09,19,00,09,0.00
2007,09,19,00,10,0.00
2007,09,19,00,11,0.00
2007,09,19,00,12,0.00
2007,09,19,00,13,0.00
2007,09,19,01,02,0.00
2007,09,19,01,03,0.00
2007,09,19,01,04,0.00
2007,09,19,01,05,0.00
2007,09,19,01,06,0.00
2007,09,19,01,07,0.00
2007,09,19,01,08,0.00
2007,09,19,01,09,0.00
2007,09,19,01,10,0.00
2007,09,19,01,11,0.00
2007,09,19,01,12,0.00
2007,09,19,01,13,0.00
2007,09,19,01,14,0.00
2007,09,19,01,15,0.00
2007,09,19,01,16,0.00
2007,09,19,01,17,0.00
2007,09,19,01,18,0.00
2007,09,19,01,19,0.00
2007,09,19,01,20,0.00
2007,09,19,01,21,0.00
2007,09,19,01,22,0.00
2007,09,19,01,23,0.00
2007,09,19,01,24,0.00
2007,09,19,01,25,0.00
2007,09,19,01,26,0.00
2007,09,19,01,27,0.00
2007,09,19,01,28,0.00
2007,09,19,01,29,0.00
2007,09,19,01,30,0.00
2007,09,19,01,31,0.00
2007,09,19,01,32,0.00
2007,09,19,01,33,0.00
2007,09,19,01,34,0.00
2007,09,19,01,35,0.00
2007,09,19,01,36,0.00
2007,09,19,01,37,0.00
2007,09,19,01,38,0.00
2007,09,19,01,39,0.00
2007,09,19,01,40,0.00
2007,09,19,01,41,0.00
2007,09,19,01,42,0.00
2007,09,19,01,43,0.00
2007,09,19,01,44,0.00
2007,09,19,01,45,0.00
2007,09,19,01,46,0.00
2007,09,19,01,47,0.00
2007,09,19,01,48,0.00
2007,09,19,01,49,0.00
2007,09,19,01,50,0.00
2007,09,19,01,51,0.00
2007,09,19,01,52,0.00
2007,09,19,01,53,0.00
2007,09,19,01,54,0.00
2007,09,19,01,55,0.00
2007,09,19,01,56,0.00
2007,09,19,01,57,0.00
2007,09,19,01,58,0.00
2007,09,19,01,59,0.00
2007,09,19,02,00,0.00
2007,09,19,02,01,0.00
2007,09,19,02,02,0.00
2007,09,19,02,03,0.00
2007,09,19,02,04,0.00
2007,09,19,02,05,0.00
2007,09,19,02,06,0.00
2007,09,19,02,07,0.00
2007,09,19,02,08,0.00
2007,09,19,02,09,0.00
2007,09,19,02,10,0.00
2007,09,19,02,11,0.00
2007,09,19,02,12,0.00
2007,09,19,02,13,0.00
2007,09,19,02,14,0.00
2007,09,19,02,15,0.00
2007,09,19,02,16,0.00
2007,09,19,02,17,0.00
2007,09,19,02,18,0.00
2007,09,19,02,19,0.00
2007,09,19,02,20,0.00
2007,09,19,02,21,0.00
2007,09,19,02,22,0.00
2007,09,19,02,23,0.00
2007,09,19,02,24,0.00
2007,09,19,02,25,0.00
2007,09,19,02,26,0.00
2007,09,19,02,27,0.00
2007,09,19,02,28,0.00
2007,09,19,02,29,0.00
2007,09,19,02,30,0.00
2007,09,19,02,31,0.00
2007,09,19,02,32,0.00
2007,09,19,02,33,0.00
2007,09,19,02,34,0.00
2007,09,19,02,35,0.00
2007,09,19,02,36,0.00
2007,09,19,02,37,0.00
2007,09,19,02,38,0.00
2007,09,19,02,39,0.00
2007,09,19,02,40,0.00
2007,09,19,02,41,0.00
2007,09,19,02,42,0.00
2007,09,19,02,43,0.00
2007,09,19,02,44,0.00
2007,09,19,02,45,0.00
2007,09,19,02,46,0.00
2007,09,19,02,47,0.00
2007,09,19,02,48,0.00
2007,09,19,02,49,0.00
2007,09,19,02,50,0.00
2007,09,19,02,51,0.00
2007,09,19,02,52,0.00
2007,09,19,02,53,0.00
2007,09,19,02,54,0.00
2007,09,19,02,55,0.00
2007,09,19,02,56,0.00
2007,09,19,02,57,0.00
2007,09,19,02,58,0.00
2007,09,19,02,59,0.00
2007,09,19,03,00,0.00
2007,09,19,03,01,0.00
2007,09,19,03,02,0.00
2007,09,19,03,03,0.00
2007,09,19,03,04,0.00
2007,09,19,03,05,0.00
2007,09,19,03,06,0.00
2007,09,19,03,07,0.00
2007,09,19,03,08,0.00
2007,09,19,03,09,0.00
2007,09,19,03,10,0.00
2007,09,19,03,11,0.00
2007,09,19,03,12,0.00
2007,09,19,03,13,0.00
2007,09,19,03,14,0.00
2007,09,19,03,15,0.00
2007,09,19,03,16,0.00
2007,09,19,03,17,0.00
2007,09,19,03,18,0.00
2007,09,19,03,19,0.00
2007,09,19,03,20,0.00
2007,09,19,03,21,0.00
2007,09,19,03,22,0.00
2007,09,19,03,23,0.00
2007,09,19,03,24,0.00
2007,09,19,03,25,0.00
2007,09,19,03,26,0.00
2007,09,19,03,27,0.00
2007,09,19,03,28,0.00
2007,09,19,03,29,0.00
2007,09,19,03,30,0.00
2007,09,19,03,31,0.00
2007,09,19,03,32,0.00
2007,09,19,03,33,0.00
2007,09,19,03,34,0.00
2007,09,19,03,35,0.00
2007,09,19,03,36,0.00
2007,09,19,03,37,0.00
2007,09,19,03,38,0.00
2007,09,19,03,39,0.00
2007,09,19,03,40,0.00
2007,09,19,03,41,0.00
2007,09,19,03,42,0.00
2007,09,19,03,43,0.00
2007,09,19,03,44,0.00
2007,09,19,03,45,0.00
2007,09,19,03,46,0.00
2007,09,19,03,47,0.00
2007,09,19,03,48,0.00
2007,09,19,03,49,0.00
2007,09,19,03,50,0.00
2007,09,19,03,51,0.00
2007,09,19,03,52,0.00
2007,09,19,03,53,0.00
2007,09,19,03,54,0.00
2007,09,19,03,55,0.00
2007,09,19,03,56,0.00
2007,09,19,03,57,0.00
2007,09,19,03,58,0.00
2007,09,19,03,59,0.00
2007,09,19,04,00,0.00
2007,09,19,04,01,0.00
2007,09,19,04,02,0.00
2007,09,19,04,03,0.00
2007,09,19,04,04,0.00
2007,09,19,04,05,0.00
2007,09,19,04,06,0.00
2007,09,19,04,07,0.00
2007,09,19,04,08,0.00
2007,09,19,04,09,0.00
2007,09,19,04,10,0.00
2007,09,19,04,11,0.00
2007,09,19,04,12,0.00
2007,09,19,04,13,0.00
2007,09,19,04,14,0.00
2007,09,19,04,15,0.00
2007,09,19,04,16,0.00
2007,09,19,04,17,0.00
2007,09,19,04,18,0.00
2007,09,19,04,19,0.00
2007,09,19,04,20,0.00
2007,09,19,04,21,0.00
2007,09,19,04,22,0.00
2007,09,19,04,23,0.00
2007,09,19,04,24,0.00
2007,09,19,04,25,0.00
2007,09,19,04,26,0.00
2007,09,19,04,27,0.00
2007,09,19,04,28,0.00
2007,09,19,04,29,0.00
2007,09,19,04,30,0.00
2007,09,19,04,31,0.00
2007,09,19,04,32,0.00
2007,09,19,04,33,0.00
2007,09,19,04,34,0.00
2007,09,19,04,35,0.00
2007,09,19,04,36,0.00
2007,09,19,04,37,0.00
2007,09,19,04,38,0.00
2007,09,19,04,39,0.00
2007,09,19,04,40,0.00
2007,09,19,04,41,0.00
2007,09,19,04,42,0.00
2007,09,19,04,43,0.00
2007,09,19,04,44,0.00
2007,09,19,04,45,0.00
2007,09,19,04,46,0.00
2007,09,19,04,47,0.00
2007,09,19,04,48,0.00
2007,09,19,04,49,0.00
2007,09,19,04,50,0.00
2007,09,19,04,51,0.00
2007,09,19,04,52,0.00
2007,09,19,04,53,0.00
2007,09,19,04,54,0.00
2007,09,19,04,55,0.00
2007,09,19,04,56,0.00
2007,09,19,04,57,0.00
2007,09,19,04,58,0.00
2007,09,19,04,59,0.00
2007,09,19,05,00,0.00
2007,09,19,05,01,0.00
2007,09,19,05,02,0.00
2007,09,19,05,03,0.00
2007,09,19,05,04,0.00
2007,09,19,05,05,0.00
2007,09,19,05,06,0.00
2007,09,19,05,07,0.00
2007,09,19,05,08,0.00
2007,09,19,05,09,0.00
2007,09,19,05,10,0.00
2007,09,19,05,11,0.00
2007,09,19,05,12,0.00
2007,09,19,05,13,0.00
2007,09,19,05,14,0.00
2007,09,19,05,15,0.00
2007,09,19,05,16,0.00
2007,09,19,05,17,0.00
2007,09,19,05,18,0.00
2007,09,19,05,19,0.00
2007,09,19,05,20,0.00
2007,09,19,05,21,0.00
2007,09,19,05,22,0.00
2007,09,19,05,23,0.00
2007,09,19,05,24,0.00
2007,09,19,05,25,0.00
2007,09,19,05,26,0.00
2007,09,19,05,27,0.00
2007,09,19,05,28,0.00
2007,09,19,05,29,0.00
2007,09,19,05,30,0.00
2007,09,19,05,31,0.00
2007,09,19,05,32,0.00
2007,09,19,05,33,0.00
2007,09,19,05,34,0.00
2007,09,19,05,35,0.00
2007,09,19,05,36,0.00
2007,09,19,05,37,0.00
2007,09,19,05,38,0.00
2007,09,19,05,39,0.00
2007,09,19,05,40,0.00
2007,09,19,05,41,0.00
2007,09,19,05,42,0.00
2007,09,19,05,43,0.00
2007,09,19,05,44,0.00
2007,09,19,05,45,0.00
2007,09,19,05,46,0.00
2007,09,19,05,47,0.00
2007,09,19,05,48,0.00
2007,09,19,05,49,0.00
2007,09,19,05,50,0.00
2007,09,19,05,51,0.00
2007,09,19,05,52,0.00
2007,09,19,05,53,0.00
2007,09,19,05,54,0.00
2007,09,19,05,55,0.00
2007,09,19,05,56,0.00
2007,09,19,05,57,0.00
2007,09,19,05,58,0.00
2007,09,19,05,59,0.00
2007,09,19,06,00,0.00
2007,09,19,06,01,0.00
2007,09,19,06,02,0.00
2007,09,19,06,03,0.00
2007,09,19,06,04,0.00
2007,09,19,06,05,0.00
2007,09,19,06,06,0.00
2007,09,19,06,07,0.00
2007,09,19,06,08,0.00
2007,09,19,06,09,0.00
2007,09,19,06,10,0.00
2007,09,19,06,11,0.00
2007,09,19,06,12,0.00
2007,09,19,06,13,0.00
2007,09,19,06,14,0.00
2007,09,19,06,15,0.00
2007,09,19,06,16,0.00
2007,09,19,06,17,0.00
2007,09,19,06,18,0.00
2007,09,19,06,19,0.00
2007,09,19,06,20,0.00
2007,09,19,06,21,0.00
2007,09,19,06,22,0.00
2007,09,19,06,23,0.00
2007,09,19,06,24,0.00
2007,09,19,06,25,0.00
2007,09,19,06,26,0.00
2007,09,19,06,27,0.00
2007,09,19,06,28,0.00
2007,09,19,06,29,0.00
2007,09,19,06,30,0.00
2007,09,19,06,31,0.00
2007,09,19,06,32,0.00
2007,09,19,06,33,0.00
2007,09,19,06,34,0.00
2007,09,19,06,35,0.00
2007,09,19,06,36,0.00
2007,09,19,06,37,0.00
2007,09,19,06,38,0.00
2007,09,19,06,39,0.00
2007,09,19,06,40,0.00
2007,09,19,06,41,0.00
2007,09,19,06,42,0.00
2007,09,19,06,43,0.00
2007,09,19,06,44,0.00
2007,09,19,06,45,0.00
2007,09,19,06,46,0.00
2007,09,19,06,47,0.00
2007,09,19,06,48,0.00
2007,09,19,06,49,0.00
2007,09,19,06,50,0.00
2007,09,19,06,51,0.00
2007,09,19,06,52,0.00
2007,09,19,06,53,0.00
2007,09,19,06,54,0.00
2007,09,19,06,55,0.00
2007,09,19,06,56,3.50
2007,09,19,06,57,5.00
2007,09,19,06,58,5.00
2007,09,19,06,59,5.00
2007,09,19,07,00,6.20
2007,09,19,07,01,7.00
2007,09,19,07,02,7.00
2007,09,19,07,03,7.00
2007,09,19,07,04,8.20
2007,09,19,07,05,9.00
2007,09,19,07,06,9.00
2007,09,19,07,07,9.00
2007,09,19,07,08,10.20
2007,09,19,07,09,11.00
2007,09,19,07,10,11.00
2007,09,19,07,11,11.60
2007,09,19,07,12,12.00
2007,09,19,07,13,12.00
2007,09,19,07,14,12.00
2007,09,19,07,15,13.20
2007,09,19,07,16,14.00
2007,09,19,07,17,14.00
2007,09,19,07,18,14.00
2007,09,19,07,19,15.20
2007,09,19,07,20,16.00
2007,09,19,07,21,16.00
2007,09,19,07,22,16.00
2007,09,19,07,23,17.20
2007,09,19,07,24,18.00
2007,09,19,07,25,18.00
2007,09,19,07,26,18.00
2007,09,19,07,27,18.70
2007,09,19,07,28,19.00
2007,09,19,07,29,19.00
2007,09,19,07,30,20.40
2007,09,19,07,31,21.00
2007,09,19,07,32,21.00
2007,09,19,07,33,21.00
2007,09,19,07,34,22.40
2007,09,19,07,35,24.40
2007,09,19,07,36,25.00
2007,09,19,07,37,25.00
2007,09,19,07,38,27.20
2007,09,19,07,39,28.00
2007,09,19,07,40,31.10
2007,09,19,07,41,40.80
2007,09,19,07,42,55.40
2007,09,19,07,43,68.40
2007,09,19,07,44,74.60
2007,09,19,07,45,76.70
2007,09,19,07,46,79.80
2007,09,19,07,47,82.20
2007,09,19,07,48,84.80
2007,09,19,07,49,87.40
2007,09,19,07,50,89.90
2007,09,19,07,51,92.40
2007,09,19,07,52,95.40
2007,09,19,07,53,97.60
2007,09,19,07,54,100.50
2007,09,19,07,55,104.20
2007,09,19,07,56,106.40
2007,09,19,07,57,109.80
2007,09,19,07,58,112.80
2007,09,19,07,59,116.40
2007,09,19,08,00,120.10
2007,09,19,08,01,122.40
2007,09,19,08,02,125.40
2007,09,19,08,03,127.70
2007,09,19,08,04,130.80
2007,09,19,08,05,133.80
2007,09,19,08,06,137.40
2007,09,19,08,07,140.40
2007,09,19,08,08,143.10
2007,09,19,08,09,146.80
2007,09,19,08,10,150.10
2007,09,19,08,11,153.80
2007,09,19,08,12,157.10
2007,09,19,08,13,159.40
2007,09,19,08,14,162.10
2007,09,19,08,15,165.70
2007,09,19,08,16,169.70
2007,09,19,08,17,171.70
2007,09,19,08,18,174.40
2007,09,19,08,19,178.10
2007,09,19,08,20,181.70
2007,09,19,08,21,185.10
2007,09,19,08,22,188.90
2007,09,19,08,23,192.10
2007,09,19,08,24,194.40
2007,09,19,08,25,197.40
2007,09,19,08,26,200.80
2007,09,19,08,27,204.80
2007,09,19,08,28,208.10
2007,09,19,08,29,211.40
2007,09,19,08,30,213.60
2007,09,19,08,31,216.80
2007,09,19,08,32,220.10
2007,09,19,08,33,222.20
2007,09,19,08,34,223.00
2007,09,19,08,35,227.20
2007,09,19,08,36,232.80
2007,09,19,08,37,235.40
2007,09,19,08,38,238.10
2007,09,19,08,39,241.40
2007,09,19,08,40,245.10
2007,09,19,08,41,248.90
2007,09,19,08,42,250.70
2007,09,19,08,43,252.20
2007,09,19,08,44,256.00
2007,09,19,08,45,259.40
2007,09,19,08,46,261.40
2007,09,19,08,47,264.10
2007,09,19,08,48,266.20
2007,09,19,08,49,269.40
2007,09,19,08,50,271.60
2007,09,19,08,51,273.40
2007,09,19,08,52,276.80
2007,09,19,08,53,278.70
2007,09,19,08,54,280.40
2007,09,19,08,55,283.50
2007,09,19,08,56,286.40
2007,09,19,08,57,287.70
2007,09,19,08,58,290.80
2007,09,19,08,59,293.40
2007,09,19,09,00,294.60
2007,09,19,09,01,296.40
2007,09,19,09,02,299.80
2007,09,19,09,03,301.60
2007,09,19,09,04,304.40
2007,09,19,09,05,307.40
2007,09,19,09,06,310.20
2007,09,19,09,07,312.40
2007,09,19,09,08,315.10
2007,09,19,09,09,317.40
2007,09,19,09,10,319.20
2007,09,19,09,11,322.10
2007,09,19,09,12,324.40
2007,09,19,09,13,327.40
2007,09,19,09,14,329.60
2007,09,19,09,15,332.50
2007,09,19,09,16,335.40
2007,09,19,09,17,338.10
2007,09,19,09,18,340.20
2007,09,19,09,19,342.20
2007,09,19,09,20,344.40
2007,09,19,09,21,345.70
2007,09,19,09,22,346.00
2007,09,19,09,23,349.70
2007,09,19,09,24,354.10
2007,09,19,09,25,356.40
2007,09,19,09,26,358.80
2007,09,19,09,27,361.20
2007,09,19,09,28,363.40
2007,09,19,09,29,365.40
2007,09,19,09,30,366.70
2007,09,19,09,31,369.40
2007,09,19,09,32,372.40
2007,09,19,09,33,373.70
2007,09,19,09,34,376.80
2007,09,19,09,35,379.20
2007,09,19,09,36,380.70
2007,09,19,09,37,383.80
2007,09,19,09,38,385.00
2007,09,19,09,39,388.50
2007,09,19,09,40,390.00
2007,09,19,09,41,392.50
2007,09,19,09,42,396.10
2007,09,19,09,43,398.40
2007,09,19,09,44,400.20
2007,09,19,09,45,403.10
2007,09,19,09,46,405.40
2007,09,19,09,47,407.40
2007,09,19,09,48,411.00
2007,09,19,09,49,414.40
2007,09,19,09,50,417.20
2007,09,19,09,51,418.00
2007,09,19,09,52,420.80
2007,09,19,09,53,423.80
2007,09,19,09,54,426.40
2007,09,19,09,55,429.90
2007,09,19,09,56,433.20
2007,09,19,09,57,436.80
2007,09,19,09,58,438.70
2007,09,19,09,59,440.40
2007,09,19,10,00,442.40
2007,09,19,10,01,444.80
2007,09,19,10,02,447.20
2007,09,19,10,03,450.80
2007,09,19,10,04,454.20
2007,09,19,10,05,456.40
2007,09,19,10,06,457.00
2007,09,19,10,07,460.60
2007,09,19,10,08,463.40
2007,09,19,10,09,465.40
2007,09,19,10,10,466.00
2007,09,19,10,11,478.30
2007,09,19,10,12,475.80
2007,09,19,10,13,474.40
2007,09,19,10,14,475.70
2007,09,19,10,15,477.40
2007,09,19,10,16,479.40
2007,09,19,10,17,482.20
2007,09,19,10,18,484.40
2007,09,19,10,19,487.70
2007,09,19,10,20,491.20
2007,09,19,10,21,493.40
2007,09,19,10,22,494.00
2007,09,19,10,23,495.90
2007,09,19,10,24,497.00
2007,09,19,10,25,499.90
2007,09,19,10,26,502.40
2007,09,19,10,27,505.10
2007,09,19,10,28,507.40
2007,09,19,10,29,518.10
2007,09,19,10,30,523.40
2007,09,19,10,31,524.00
2007,09,19,10,32,519.80
2007,09,19,10,33,517.00
2007,09,19,10,34,519.20
2007,09,19,10,35,522.80
2007,09,19,10,36,525.40
2007,09,19,10,37,526.60
2007,09,19,10,38,528.20
2007,09,19,10,39,530.40
2007,09,19,10,40,532.40
2007,09,19,10,41,533.70
2007,09,19,10,42,535.20
2007,09,19,10,43,538.80
2007,09,19,10,44,540.60
2007,09,19,10,45,541.00
2007,09,19,10,46,542.20
2007,09,19,10,47,545.50
2007,09,19,10,48,547.70
2007,09,19,10,49,549.20
2007,09,19,10,50,550.00
2007,09,19,10,51,553.60
2007,09,19,10,52,555.00
2007,09,19,10,53,556.40
2007,09,19,10,54,559.90
2007,09,19,10,55,561.00
2007,09,19,10,56,562.20
2007,09,19,10,57,563.70
2007,09,19,10,58,565.40
2007,09,19,10,59,568.80
2007,09,19,11,00,570.00
2007,09,19,11,01,570.00
2007,09,19,11,02,572.20
2007,09,19,11,03,573.00
2007,09,19,11,04,575.90
2007,09,19,11,05,577.70
2007,09,19,11,06,579.20
2007,09,19,11,07,581.40
2007,09,19,11,08,583.40
2007,09,19,11,09,584.70
2007,09,19,11,10,586.40
2007,09,19,11,11,588.40
2007,09,19,11,12,590.40
2007,09,19,11,13,591.70
2007,09,19,11,14,592.00
2007,09,19,11,15,593.40
2007,09,19,11,16,596.80
2007,09,19,11,17,598.70
2007,09,19,11,18,600.20
2007,09,19,11,19,601.00
2007,09,19,11,20,602.20
2007,09,19,11,21,603.00
2007,09,19,11,22,604.40
2007,09,19,11,23,607.10
2007,09,19,11,24,606.80
2007,09,19,11,25,608.40
2007,09,19,11,26,611.80
2007,09,19,11,27,613.00
2007,09,19,11,28,614.20
2007,09,19,11,29,615.00
2007,09,19,11,30,616.40
2007,09,19,11,31,618.40
2007,09,19,11,32,620.40
2007,09,19,11,33,623.20
2007,09,19,11,34,624.00
2007,09,19,11,35,625.20
2007,09,19,11,36,626.00
2007,09,19,11,37,628.20
2007,09,19,11,38,630.40
2007,09,19,11,39,631.00
2007,09,19,11,40,632.20
2007,09,19,11,41,634.40
2007,09,19,11,42,635.00
2007,09,19,11,43,635.60
2007,09,19,11,44,636.00
2007,09,19,11,45,637.40
2007,09,19,11,46,638.00
2007,09,19,11,47,639.40
2007,09,19,11,48,641.40
2007,09,19,11,49,642.60
2007,09,19,11,50,643.00
2007,09,19,11,51,644.40
2007,09,19,11,52,645.00
2007,09,19,11,53,647.90
2007,09,19,11,54,649.00
2007,09,19,11,55,650.90
2007,09,19,11,56,649.80
2007,09,19,11,57,649.70
2007,09,19,11,58,652.90
2007,09,19,11,59,655.40
2007,09,19,12,00,656.00
2007,09,19,12,01,656.70
2007,09,19,12,02,657.00
2007,09,19,12,03,658.40
2007,09,19,12,04,660.40
2007,09,19,12,05,659.60
2007,09,19,12,06,660.40
2007,09,19,12,07,662.40
2007,09,19,12,08,663.00
2007,09,19,12,09,663.00
2007,09,19,12,10,666.50
2007,09,19,12,11,666.80
2007,09,19,12,12,667.20
2007,09,19,12,13,669.40
2007,09,19,12,14,670.00
2007,09,19,12,15,670.00
2007,09,19,12,16,670.60
2007,09,19,12,17,672.40
2007,09,19,12,18,671.60
2007,09,19,12,19,671.00
2007,09,19,12,20,672.40
2007,09,19,12,21,674.40
2007,09,19,12,22,675.00
2007,09,19,12,23,675.00
2007,09,19,12,24,675.00
2007,09,19,12,25,675.00
2007,09,19,12,26,676.20
2007,09,19,12,27,678.40
2007,09,19,12,28,679.00
2007,09,19,12,29,677.60
2007,09,19,12,30,679.20
2007,09,19,12,31,679.30
2007,09,19,12,32,681.10
2007,09,19,12,33,682.00
2007,09,19,12,34,683.20
2007,09,19,12,35,682.80
2007,09,19,12,36,684.40
2007,09,19,12,37,686.00
2007,09,19,12,38,686.70
2007,09,19,12,39,687.00
2007,09,19,12,40,687.00
2007,09,19,12,41,686.40
2007,09,19,12,42,686.00
2007,09,19,12,43,686.00
2007,09,19,12,44,687.90
2007,09,19,12,45,689.00
2007,09,19,12,46,689.00
2007,09,19,12,47,689.00
2007,09,19,12,48,687.60
2007,09,19,12,49,688.20
2007,09,19,12,50,689.00
2007,09,19,12,51,689.00
2007,09,19,12,52,689.00
2007,09,19,12,53,690.20
2007,09,19,12,54,693.10
2007,09,19,12,55,694.00
2007,09,19,12,56,695.40
2007,09,19,12,57,696.00
2007,09,19,12,58,694.60
2007,09,19,12,59,694.00
2007,09,19,13,00,694.00
2007,09,19,13,01,694.00
2007,09,19,13,02,693.30
2007,09,19,13,03,691.80
2007,09,19,13,04,689.80
2007,09,19,13,05,689.00
2007,09,19,13,06,689.00
2007,09,19,13,07,690.40
2007,09,19,13,08,688.10
2007,09,19,13,09,688.40
2007,09,19,13,10,692.60
2007,09,19,13,11,691.90
2007,09,19,13,12,691.00
2007,09,19,13,13,691.00
2007,09,19,13,14,689.60
2007,09,19,13,15,691.80
2007,09,19,13,16,693.60
2007,09,19,13,17,694.00
2007,09,19,13,18,694.00
2007,09,19,13,19,691.90
2007,09,19,13,20,691.00
2007,09,19,13,21,689.80
2007,09,19,13,22,690.20
2007,09,19,13,23,691.00
2007,09,19,13,24,691.00
2007,09,19,13,25,688.50
2007,09,19,13,26,689.90
2007,09,19,13,27,687.40
2007,09,19,13,28,686.00
2007,09,19,13,29,684.60
2007,09,19,13,30,685.20
2007,09,19,13,31,686.00
2007,09,19,13,32,686.00
2007,09,19,13,33,686.00
2007,09,19,13,34,684.80
2007,09,19,13,35,682.80
2007,09,19,13,36,682.00
2007,09,19,13,37,683.20
2007,09,19,13,38,685.20
2007,09,19,13,39,686.60
2007,09,19,13,40,688.30
2007,09,19,13,41,689.00
2007,09,19,13,42,689.00
2007,09,19,13,43,689.00
2007,09,19,13,44,691.80
2007,09,19,13,45,690.60
2007,09,19,13,46,687.80
2007,09,19,13,47,685.20
2007,09,19,13,48,685.80
2007,09,19,13,49,682.80
2007,09,19,13,50,682.40
2007,09,19,13,51,682.80
2007,09,19,13,52,679.00
2007,09,19,13,53,678.20
2007,09,19,13,54,675.40
2007,09,19,13,55,673.00
2007,09,19,13,56,673.00
2007,09,19,13,57,674.20
2007,09,19,13,58,675.00
2007,09,19,13,59,673.80
2007,09,19,14,00,674.20
2007,09,19,14,01,673.80
2007,09,19,14,02,671.80
2007,09,19,14,03,669.10
2007,09,19,14,04,668.00
2007,09,19,14,05,666.80
2007,09,19,14,06,667.20
2007,09,19,14,07,668.00
2007,09,19,14,08,668.00
2007,09,19,14,09,669.20
2007,09,19,14,10,667.50
2007,09,19,14,11,664.60
2007,09,19,14,12,664.00
2007,09,19,14,13,665.20
2007,09,19,14,14,664.20
2007,09,19,14,15,660.60
2007,09,19,14,16,656.00
2007,09,19,14,17,655.20
2007,09,19,14,18,654.60
2007,09,19,14,19,652.60
2007,09,19,14,20,650.80
2007,09,19,14,21,649.40
2007,09,19,14,22,649.00
2007,09,19,14,23,653.20
2007,09,19,14,24,654.80
2007,09,19,14,25,652.80
2007,09,19,14,26,650.60
2007,09,19,14,27,649.40
2007,09,19,14,28,649.00
2007,09,19,14,29,649.00
2007,09,19,14,30,649.60
2007,09,19,14,31,648.20
2007,09,19,14,32,648.20
2007,09,19,14,33,649.00
2007,09,19,14,34,647.60
2007,09,19,14,35,644.20
2007,09,19,14,36,640.90
2007,09,19,14,37,638.80
2007,09,19,14,38,638.00
2007,09,19,14,39,636.80
2007,09,19,14,40,635.40
2007,09,19,14,41,635.00
2007,09,19,14,42,633.80
2007,09,19,14,43,633.00
2007,09,19,14,44,630.40
2007,09,19,14,45,629.00
2007,09,19,14,46,627.20
2007,09,19,14,47,623.60
2007,09,19,14,48,621.40
2007,09,19,14,49,621.60
2007,09,19,14,50,621.40
2007,09,19,14,51,621.00
2007,09,19,14,52,619.80
2007,09,19,14,53,619.00
2007,09,19,14,54,617.80
2007,09,19,14,55,615.80
2007,09,19,14,56,613.80
2007,09,19,14,57,612.30
2007,09,19,14,58,609.40
2007,09,19,14,59,609.20
2007,09,19,15,00,607.60
2007,09,19,15,01,604.20
2007,09,19,15,02,603.00
2007,09,19,15,03,601.60
2007,09,19,15,04,601.00
2007,09,19,15,05,601.00
2007,09,19,15,06,599.80
2007,09,19,15,07,597.20
2007,09,19,15,08,594.80
2007,09,19,15,09,594.00
2007,09,19,15,10,592.70
2007,09,19,15,11,590.10
2007,09,19,15,12,586.20
2007,09,19,15,13,585.00
2007,09,19,15,14,585.00
2007,09,19,15,15,583.20
2007,09,19,15,16,582.00
2007,09,19,15,17,580.60
2007,09,19,15,18,580.00
2007,09,19,15,19,577.00
2007,09,19,15,20,573.80
2007,09,19,15,21,573.00
2007,09,19,15,22,569.50
2007,09,19,15,23,566.70
2007,09,19,15,24,564.80
2007,09,19,15,25,565.20
2007,09,19,15,26,564.60
2007,09,19,15,27,563.30
2007,09,19,15,28,560.60
2007,09,19,15,29,556.40
2007,09,19,15,30,555.00
2007,09,19,15,31,554.40
2007,09,19,15,32,551.60
2007,09,19,15,33,548.70
2007,09,19,15,34,547.40
2007,09,19,15,35,545.80
2007,09,19,15,36,543.80
2007,09,19,15,37,541.60
2007,09,19,15,38,541.00
2007,09,19,15,39,538.90
2007,09,19,15,40,535.60
2007,09,19,15,41,534.00
2007,09,19,15,42,533.40
2007,09,19,15,43,530.20
2007,09,19,15,44,530.20
2007,09,19,15,45,529.80
2007,09,19,15,46,527.10
2007,09,19,15,47,524.70
2007,09,19,15,48,521.00
2007,09,19,15,49,519.00
2007,09,19,15,50,517.60
2007,09,19,15,51,515.60
2007,09,19,15,52,513.10
2007,09,19,15,53,510.80
2007,09,19,15,54,507.60
2007,09,19,15,55,504.20
2007,09,19,15,56,503.00
2007,09,19,15,57,503.00
2007,09,19,15,58,500.20
2007,09,19,15,59,497.20
2007,09,19,16,00,494.80
2007,09,19,16,01,492.60
2007,09,19,16,02,490.60
2007,09,19,16,03,490.00
2007,09,19,16,04,488.10
2007,09,19,16,05,484.20
2007,09,19,16,06,482.30
2007,09,19,16,07,480.60
2007,09,19,16,08,476.50
2007,09,19,16,09,475.00
2007,09,19,16,10,473.60
2007,09,19,16,11,470.20
2007,09,19,16,12,466.90
2007,09,19,16,13,464.70
2007,09,19,16,14,462.80
2007,09,19,16,15,461.30
2007,09,19,16,16,459.60
2007,09,19,16,17,456.20
2007,09,19,16,18,454.40
2007,09,19,16,19,451.20
2007,09,19,16,20,448.80
2007,09,19,16,21,446.80
2007,09,19,16,22,446.00
2007,09,19,16,23,444.00
2007,09,19,16,24,441.60
2007,09,19,16,25,441.00
2007,09,19,16,26,436.50
2007,09,19,16,27,432.80
2007,09,19,16,28,431.30
2007,09,19,16,29,428.20
2007,09,19,16,30,425.60
2007,09,19,16,31,424.40
2007,09,19,16,32,421.40
2007,09,19,16,33,418.10
2007,09,19,16,34,415.60
2007,09,19,16,35,413.70
2007,09,19,16,36,411.60
2007,09,19,16,37,408.90
2007,09,19,16,38,406.60
2007,09,19,16,39,404.70
2007,09,19,16,40,403.40
2007,09,19,16,41,400.20
2007,09,19,16,42,397.60
2007,09,19,16,43,396.30
2007,09,19,16,44,393.40
2007,09,19,16,45,390.80
2007,09,19,16,46,388.60
2007,09,19,16,47,385.90
2007,09,19,16,48,382.40
2007,09,19,16,49,379.20
2007,09,19,16,50,376.70
2007,09,19,16,51,374.80
2007,09,19,16,52,372.20
2007,09,19,16,53,369.60
2007,09,19,16,54,369.00
2007,09,19,16,55,366.90
2007,09,19,16,56,363.20
2007,09,19,16,57,360.70
2007,09,19,16,58,358.20
2007,09,19,16,59,355.70
2007,09,19,17,00,353.20
2007,09,19,17,01,350.60
2007,09,19,17,02,348.60
2007,09,19,17,03,346.10
2007,09,19,17,04,342.60
2007,09,19,17,05,338.90
2007,09,19,17,06,333.20
2007,09,19,17,07,332.40
2007,09,19,17,08,332.70
2007,09,19,17,09,330.70
2007,09,19,17,10,329.40
2007,09,19,17,11,327.60
2007,09,19,17,12,324.40
2007,09,19,17,13,322.40
2007,09,19,17,14,320.70
2007,09,19,17,15,317.20
2007,09,19,17,16,313.90
2007,09,19,17,17,311.80
2007,09,19,17,18,308.90
2007,09,19,17,19,305.10
2007,09,19,17,20,302.60
2007,09,19,17,21,301.30
2007,09,19,17,22,299.60
2007,09,19,17,23,296.20
2007,09,19,17,24,294.30
2007,09,19,17,25,291.40
2007,09,19,17,26,287.90
2007,09,19,17,27,287.00
2007,09,19,17,28,285.60
2007,09,19,17,29,268.30
2007,09,19,17,30,271.60
2007,09,19,17,31,273.80
2007,09,19,17,32,269.90
2007,09,19,17,33,266.40
2007,09,19,17,34,263.10
2007,09,19,17,35,259.80
2007,09,19,17,36,256.20
2007,09,19,17,37,253.60
2007,09,19,17,38,251.20
2007,09,19,17,39,247.60
2007,09,19,17,40,242.80
2007,09,19,17,41,238.60
2007,09,19,17,42,234.00
2007,09,19,17,43,230.70
2007,09,19,17,44,228.10
2007,09,19,17,45,227.00
2007,09,19,17,46,221.60
2007,09,19,17,47,215.20
2007,09,19,17,48,212.00
2007,09,19,17,49,208.40
2007,09,19,17,50,205.20
2007,09,19,17,51,201.20
2007,09,19,17,52,197.90
2007,09,19,17,53,193.50
2007,09,19,17,54,189.40
2007,09,19,17,55,186.20
2007,09,19,17,56,182.20
2007,09,19,17,57,179.70